Location: Unspecified
(0.0000°N, 0.0000°E)
Time: 01:28:51
(UTC+02:00)

AO-40 - Visible Passes

Search period start: 18 August 2017 00:00
Search period end: 28 August 2017 00:00
Orbit: 1144 x 58676 km, 6.6° (Epoch: 16 August)

Date Brightness Start Highest point End Pass type
(mag) Time Alt. Az. Time Alt. Az. Time Alt. Az.
18 Aug ? 02:11:55 10° W 02:15:50 15° W 02:15:50 15° W visible
18 Aug ? 10:51:55 10° E 20:49:52 83° N 21:22:34 16° E visible
20 Aug ? 12:17:35 10° W 13:57:28 75° WSW 20:47:40 10° W visible
21 Aug ? 07:06:03 16° W 07:12:34 82° S 22:29:54 10° W visible
22 Aug ? 01:40:49 10° W 01:49:33 20° WNW 01:49:33 20° WNW visible
22 Aug ? 10:42:54 10° E 20:14:54 84° NNW 20:56:10 10° E visible
24 Aug ? 11:49:20 10° W 13:30:51 78° SW 20:38:49 10° W visible
25 Aug ? 06:39:48 28° W 06:44:33 82° S 22:26:02 10° W visible
26 Aug ? 01:08:29 10° W 01:23:17 26° WNW 01:23:17 26° WNW visible
26 Aug ? 10:33:53 10° E 19:35:49 85° NNW 20:28:15 10° E visible
